NOAA 3

Satellite information

Favourite Embed

Satellite Type and Status

PAYLOADIN ORBIT

Key statistics

Satellite NOAA 3 at a glance.

Uptime

19030

Days in orbit

Revolutions

≈ 12.4

Per day

Orbit

SSO

Sun Synchronous Orbit

Inclination

102.3

Latest

Satellite identification and parameters

Extended collection of information and parameters for NOAA 3.

Object identification

Identified? True

Debris? False

Object name: NOAA 3

International designator: 1973-086A

Object number (NORAD): 6920

Object ID (CCSDS): 6920

Country: UNITED STATES OF AMERICA (US)

Current information (Y/N): Y

RCS size: LARGE

Orbital parameters

Period: 116.093 minutes

Inclination: 102.291 deg

SMA: 7883.092 km

Apoapsis: 1510.038 km

Periapsis: 1499.876 km

RAAN: 353.4527 deg

Eccentricy: 0.00064459

Argument of periapsis: 109.0802 deg

Mean anomaly: 261.7462 deg

Mean motion: 12.40388898 rev/day

Mean motion (dot): -0.00000023 rev/day2

B* drag term: 0.00017605768 1/REarth

Two-line elements (TLE)

Creation date: Dec. 12, 2025, 10:14 a.m.

Reference frame: TEME

Reference center: EARTH

Epoch: Dec. 12, 2025, 7:30 a.m. UTC

TLE line 0: 0 NOAA 3

TLE line 1: 1 06920U 73086A 25346.31307378 -.00000023 00000-0 17606-3 0 9992

TLE line 2: 2 06920 102.2910 353.4527 0006446 109.0802 261.7462 12.40388898358738

Live tracking on map

Real-time ground track for satellite NOAA 3.

In-orbit conjunctions

There are no conjunctions computed for NOAA 3, at the moment. Check back to stay up to date, as we update our databases every day.

Go to all conjunctions

Associated space launch

Meteorological satellite using radiometric imaging

NOAA 3 was lifted into orbit during the mission ‘Delta 0300 | NOAA 3’, on board a Delta 0300 space rocket.

The launch took place on Nov. 6, 1973, 5:02 p.m. from Space Launch Complex 2W.

For more information about the launch, click the button.

Launch to space Delta 0300 | NOAA 3
Delta 0300 | NOAA 3

Agency: N/A

Status: Launch Successful

Launch date: Nov. 6, 1973, 5:02 p.m. UTC

Rocket: Delta 0300

Launch pad: Space Launch Complex 2W

Location: Vandenberg SFB, CA, USA

...

Latest news about this satellite

There are no fresh news available about this satellite. Check back as we update our databases every day.


Newsletter sign-up

Weekly statistics, charts and insights to help you stay on top of the space industry.